Regional Weather Roundup
Issued by NWS

Home | Current Version | Previous Version | Text Only | Print | Product List | Glossary On
Versions: 1 2 3 4 5 6 7 8 9 10 11 12 13 14 15 16 17 18 19 20 21 22 23 24 25 26 27 28 29 30 31 32 33 34 35 36 37 38 39 40 41 42 43 44 45 46 47 48 49 50
000
ASUS43 KLMK 290010
RWRKY
KENTUCKY REGIONAL WEATHER ROUNDUP
NATIONAL WEATHER SERVICE LOUISVILLE KY
800 PM EDT THU JUL 28 2016

NOTE "FAIR" INDICATES FEW OR NO CLOUDS BELOW 12,000 FEET
WITH NO SIGNIFICANT WEATHER AND/OR OBSTRUCTIONS TO VISIBILITY.

KYZ001>023-026-027-061>063-070>075-290100-
WESTERN AND SOUTH CENTRAL KENTUCKY

CITY           SKY/WX    TMP DP  RH WIND       PRES   REMARKS
PADUCAH        CLOUDY    86  76  71 SW6       29.87F HX  96
HENDERSON      CLOUDY    82  75  78 CALM      29.85F
OWENSBORO      MOSUNNY   83  77  82 S6        29.88F HX  92
HOPKINSVILLE   NOT AVBL
BOWLING GREEN  PTCLDY    83  73  72 SE7       29.91S
GLASGOW        CLOUDY    79  70  74 CALM      29.93S
$$

KYZ024-025-028>034-038-045-046-053-290100-
NORTH CENTRAL KENTUCKY

CITY           SKY/WX    TMP DP  RH WIND       PRES   REMARKS
LOUISVILLE/SDF MOCLDY    83  70  64 W9        29.89R
LOUISVILLE/LOU PTCLDY    84  69  60 NW9       29.90R
FORT KNOX      NOT AVBL
$$

KYZ035>037-039>044-047>052-055>060-089>105-290100-
NORTHEAST KENTUCKY

CITY           SKY/WX    TMP DP  RH WIND       PRES   REMARKS
LEXINGTON      CLOUDY    77  70  79 S5        29.92R
COVINGTON      MOCLDY    79  72  79 W6        29.90R
FRANKFORT      CLOUDY    78  72  81 SE3       29.90R
$$

KYZ054-064>069-076>088-106>120-290100-
SOUTHEAST KENTUCKY

CITY           SKY/WX    TMP DP  RH WIND       PRES   REMARKS
JACKSON        CLOUDY    73  71  93 CALM      29.94R
LONDON         CLOUDY    73  67  81 W3        29.96R
SOMERSET       CLOUDY    72  70  94 CALM      29.96R
MIDDLESBORO    LGT RAIN  72  71  99 CALM      29.95R
MONTICELLO     PTCLDY   N/A N/A N/A VRB7      29.97S
$$





USA.gov is the U.S. government's official web portal to all federal, state and local government web resources and services.